Regional Weather Roundup
Issued by NWS San Angelo, TX

Home | Current Version | Previous Version | Text Only | Print | Product List | Glossary On
Versions: 1 2 3 4 5 6 7 8 9 10 11 12 13 14 15 16 17 18 19 20 21 22 23 24 25 26 27 28 29 30 31 32 33 34 35 36 37 38 39 40 41 42 43 44 45 46 47 48 49 50
000
ASUS44 KSJT 191002
RWRSJT
WEST CENTRAL TEXAS REGIONAL WEATHER ROUNDUP
NATIONAL WEATHER SERVICE SAN ANGELO TX
500 AM CDT SAT AUG 19 2017

NOTE: "FAIR" INDICATES FEW OR NO CLOUDS BELOW 12,000 FEET WITH NO
SIGNIFICANT WEATHER AND/OR OBSTRUCTIONS TO VISIBILITY.

TXZ049-054-064>066-071>073-076>078-098-099-113-114-127-128-139-140-
154-155-168>170-191100
...LOCATIONS ACROSS WEST CENTRAL TEXAS...

CITY           SKY/WX    TMP DP  RH WIND       PRES   REMARKS
SAN ANGELO     CLEAR     73  67  81 S3        30.02S
ABILENE        PTCLDY    73  71  93 SE7       30.02S
DYESS AFB      NOT AVBL
JUNCTION       LGT RAIN  78  69  73 S7        30.03F
SWEETWATER     CLEAR     75  67  76 S10       30.07S
BROWNWOOD      CLOUDY    75  68  78 SE6       30.02R
COLEMAN        MOSUNNY   76  66  71 CALM      30.03S
SONORA         CLEAR     77  72  83 CALM      30.09R
OZONA          NOT AVBL
BRADY          NOT AVBL
$$

TEXAS PANHANDLE/OKLAHOMA PANHANDLE

CITY           SKY/WX    TMP DP  RH WIND       PRES   REMARKS
AMARILLO       CLEAR     68  64  87 SW8       30.09F
BORGER         CLEAR     76  64  66 SW8       30.05F
CANADIAN       CLEAR     70  69  94 SW7       30.00F
DALHART        CLEAR     66  64  93 CALM      30.11S
DUMAS          SUNNY     67  64  87 SW7       30.09S
GUYMON         NOT AVBL
HEREFORD       NOT AVBL
PAMPA          NOT AVBL
PERRYTON       CLEAR     71  67  86 CALM      30.03S
$$

SOUTHERN PANHANDLE/SOUTH PLAINS/ROLLING PLAINS

CITY           SKY/WX    TMP DP  RH WIND       PRES   REMARKS
LUBBOCK        PTCLDY    72  63  73 SW6       30.08F
SNYDER         CLEAR     73  67  81 S5        30.05S
CHILDRESS      CLEAR     75  67  76 S6        30.01S
SEMINOLE       NOT AVBL
$$

PERMIAN BASIN

CITY           SKY/WX    TMP DP  RH WIND       PRES   REMARKS
MIDLAND        PTCLDY    73  64  73 E5        30.07S
ODESSA         CLEAR     71  65  81 E7        30.08S
WINK           PTCLDY    71  64  78 SE7       30.03S
$$

FAR WEST/SOUTHWEST MOUNTAINS/TRANS PECOS

CITY           SKY/WX    TMP DP  RH WIND       PRES   REMARKS
ALPINE         MOSUNNY   66  61  86 S7        30.20S
DRYDEN           N/A     73  66  78 VRB3      30.01R
EL PASO        MOCLDY    72  61  68 CALM      30.09F
FORT STOCKTON  PTCLDY    72  67  84 SE5       30.05S
GUADALUPE PASS NOT AVBL
MARFA          CLOUDY    66  64  93 S5        30.20S
PECOS          CLOUDY    71  64  79 E8        30.03S
$$

DALLAS/FORT WORTH METROPLEX

CITY           SKY/WX    TMP DP  RH WIND       PRES   REMARKS
DFW AIRPORT    CLEAR     79  73  82 S6        29.95S
FTW MEACHAM    CLEAR     77  74  90 S7        29.96S
DAL-EXECUTIVE  CLEAR     79  72  79 S3        29.97R
GRAND PRAIRIE  CLEAR     80  69  70 S6        29.98S
ADDISON        CLEAR     78  72  81 S7        29.99R
MESQUITE         N/A     76  74  94 SW3       29.98S
LANCASTER      SUNNY     76  71  86 CALM      29.98S HAZE
$$

NORTH CENTRAL TEXAS

CITY           SKY/WX    TMP DP  RH WIND       PRES   REMARKS
SHRMAN/DENISON SUNNY     76  73  89 S3        29.98S
GAINESVILLE    CLEAR     73  72  96 CALM      30.00R
BRIDGEPORT     SUNNY     72  72 100 CALM      29.99S
DENTON         CLEAR     73  73 100 CALM      29.97R
WAXAHACHIE     SUNNY     75  72  88 S5        29.99S
GRANBURY       NOT AVBL
$$

WESTERN NORTH TEXAS

CITY           SKY/WX    TMP DP  RH WIND       PRES   REMARKS
WICHITA FALLS  PTCLDY    74  71  91 S6        29.96F
VERNON         SUNNY     76  70  83 S3        29.98S
BRECKENRIDGE   SUNNY     77  69  76 S7        29.99S
COMANCHE       CLOUDY    78  70  76 S10       30.01R
$$

CENTRAL AND SOUTH CENTRAL TEXAS

CITY           SKY/WX    TMP DP  RH WIND       PRES   REMARKS
AUSTIN/BERGSTM PTCLDY    76  73  91 S6        30.00S
WACO           CLEAR     80  70  71 S8        29.98S
HILLSBORO      SUNNY     79  72  79 S6        29.98F
TEMPLE         CLEAR     78  70  76 S8        30.00S
KILLEEN-GRAY   CLEAR     77  68  73 S7        30.01R
FORT HOOD      CLEAR     77  68  72 S6        29.98R
GEORGETOWN     CLEAR     79  70  74 S10       30.02F
LAGO VISTA     FAIR      78  71  78 SW8       30.04R
SAN MARCOS     CLOUDY    77  73  88 SW5       30.02S
NEW BRAUNFELS  PTCLDY    76  73  91 SW7       30.00S
RANDOLPH AFB   CLOUDY    78  77  99 SW3       30.02R
SAN ANTONIO    PTCLDY    78  72  81 S5        30.02S
STINSON        PTCLDY    77  73  87 CALM      29.99S
PLEASANTON     NOT AVBL
LA GRANGE      PTCLDY    78  76  95 CALM      29.99R
GIDDINGS       MOSUNNY   76  74  91 SW3       30.01S
$$

EAST TEXAS

CITY           SKY/WX    TMP DP  RH WIND       PRES   REMARKS
PARIS          CLEAR     75  74  96 SE6       29.98S
CLARKSVILLE    NOT AVBL
TYLER          CLEAR     78  76  93 S7        29.99S
LONGVIEW       CLEAR     79  76  90 S7        29.98S
PALESTINE      SUNNY     78  74  87 CALM      30.01S
NACOGDOCHES    CLEAR     78  75  90 CALM      30.01S
$$

TEXAS HILL COUNTRY AND EDWARDS PLATEAU

CITY           SKY/WX    TMP DP  RH WIND       PRES   REMARKS
LLANO          SUNNY     79  70  73 CALM      30.05R
HORSESHOE BAY  FAIR      78  69  73 CALM      30.02R
KERRVILLE      CLEAR     74  71  91 S7        30.06S
FREDERICKSBRG  NOT AVBL
ROCKSPRINGS    NOT AVBL
HONDO          CLEAR     77  72  84 SE3       30.01F
UVALDE         SUNNY     75  70  84 CALM      30.01F
DEL RIO        CLEAR     83  71  67 SE10      29.96S
$$

SOUTHEAST TEXAS

CITY           SKY/WX    TMP DP  RH WIND       PRES   REMARKS
COLLEGE STN    CLEAR     77  75  93 S5        30.00S
CALDWELL       NOT AVBL
CROCKETT       NOT AVBL
BRENHAM        PTCLDY    78  77  95 S3        30.00S
HUNTSVILLE     CLEAR     79  74  84 SW3       30.01R
CONROE         CLEAR     76  73  91 CALM      30.00S
HOUSTON BUSH   PTCLDY    79  76  90 CALM      29.99S
HOUSTON HOBBY  PTCLDY    82  76  81 CALM      29.98F
PERLAND        CLEAR     81  75  82 CALM      30.00R
WHARTON        SUNNY     75  73  92 CALM      30.00R
$$

THE UPPER TEXAS COAST

CITY           SKY/WX    TMP DP  RH WIND       PRES   REMARKS
ORANGE         SUNNY     76  76 100 CALM      30.00S FOG
PORT ARTHUR    CLEAR     75  74  96 CALM      29.98F FOG
GALVESTON      PTCLDY    84  79  85 SW8       29.99S
ANGLETON       CLEAR     78  77  96 CALM      29.98S
BAY CITY       SUNNY     78  77  95 CALM      29.98S
$$

TEXAS COASTAL BEND, RIO GRANDE PLAINS DEEP SOUTH TEXAS

CITY           SKY/WX    TMP DP  RH WIND       PRES   REMARKS
VICTORIA       CLEAR     78  75  90 CALM      29.98R
BEEVILLE       FAIR     N/A N/A N/A S3        29.98F
ROCKPORT         N/A     83  77  82 S3        29.97R
PORT ARANSAS   MOSUNNY   82  77  86 SW6       29.97S
PORT LAVACA    MOSUNNY   78  75  89 S3        29.97S
CORPUS CHRISTI PTCLDY    77  75  93 CALM      29.97S
KINGSVILLE NAS PTCLDY    78  78 100 S3        29.96F
COTULLA        CLEAR     78  71  79 SE5       29.97F
LAREDO         CLEAR     80  73  79 S13       29.95F
BROWNSVILLE    PTCLDY    76  76 100 S5        29.96F
PORT ISABEL    CLEAR     79  76  90 S6        29.95F
HEBBRONVILLE   NOT AVBL
MCALLEN        CLEAR     80  75  84 SE5       29.96F
WESLACO        NOT AVBL
FALFURRIAS     MOSUNNY   78  75  92 CALM      29.95F
EDINBURG       SUNNY     78  74  87 CALM      29.96F
$$



USA.gov is the U.S. government's official web portal to all federal, state and local government web resources and services.